Probability
15 15 15 14 10 8 10 10 7 5 4 4 4 4 2 2 1 2 3 3 2 1 0 0 0 0 0 0 0 0 0 0 0 0 1 1 1 0
20 19 19 15 10 9 10 10 8 5 3 4 5 4 3 2 2 1 2 1 1 0 0 0 0 0 0 0 0 0 0 0 0 0 0 0 0 0
22 22 22 18 13 12 14 14 11 8 5 4 5 6 6 6 5 3 2 2 1 1 0 0 0 0 0 0 0 0 0 0 0 0 0 0 0 0
21 22 22 21 19 18 17 18 17 13 10 8 8 8 10 10 9 7 5 5 4 3 1 0 0 0 0 0 0 0 0 0 0 0 0 0 0 0
23 23 23 24 24 21 19 21 22 18 16 14 12 12 14 15 13 10 9 11 9 5 3 2 1 0 0 0 0 0 0 0 0 0 0 0 0 0
28 27 25 24 24 22 20 22 23 21 19 18 16 16 19 19 16 13 13 15 14 10 8 6 4 2 1 0 0 0 0 0 0 0 0 0 0 0
32 30 27 23 20 18 18 20 23 23 21 19 18 18 18 19 17 15 15 17 16 16 14 11 9 7 5 3 1 0 0 0 0 0 0 0 0 0
33 31 26 21 17 15 14 14 17 19 20 20 18 16 15 15 15 14 15 16 17 16 15 12 11 10 9 6 2 0 0 0 0 0 0 0 0 0
29 29 26 21 18 18 16 13 14 16 17 18 17 15 14 14 15 15 15 17 17 16 14 12 10 9 9 6 2 0 0 0 0 0 0 0 0 0
24 25 25 22 19 19 18 18 18 17 14 14 14 14 14 15 16 17 17 17 17 16 14 12 11 9 8 6 3 0 0 0 0 0 0 0 0 0
21 21 22 20 16 14 17 20 22 20 14 10 10 11 12 14 15 18 18 16 14 13 13 14 13 11 9 7 5 2 1 0 0 0 0 0 0 0
21 20 18 15 10 9 13 17 20 19 15 12 10 10 12 13 13 15 16 15 12 10 11 14 14 12 10 7 6 5 5 3 2 1 0 0 0 0
21 20 16 10 6 5 8 12 14 15 15 15 14 13 14 15 14 14 14 14 12 12 12 12 12 11 9 6 5 6 7 7 4 2 1 0 0 0
18 18 14 8 4 2 3 5 7 9 13 16 17 15 14 14 14 14 14 14 13 12 11 10 10 8 7 5 4 4 4 5 5 4 3 2 2 1
13 11 8 5 3 2 2 2 3 5 10 14 16 14 12 11 12 12 12 12 11 10 8 7 7 5 4 3 2 1 1 3 5 5 5 5 5 4
8 7 5 3 4 4 4 3 3 4 7 11 12 11 10 9 10 10 9 8 8 7 4 3 3 3 2 1 1 1 1 2 4 5 6 6 5 5
5 6 6 6 6 6 5 4 3 4 6 8 9 9 8 9 9 8 7 6 6 5 3 2 2 2 1 1 2 2 2 2 3 5 6 5 4 4
4 6 8 8 7 6 5 5 4 3 4 5 7 7 7 8 8 8 6 5 4 4 3 3 2 1 0 1 1 1 1 3 3 4 4 4 3 2
3 5 7 7 7 5 4 4 3 3 4 4 5 6 6 7 8 7 5 4 3 3 3 3 2 1 0 0 0 0 1 2 2 2 3 3 2 1
3 4 5 6 5 5 4 4 3 4 4 4 3 4 6 7 7 5 4 3 3 3 3 3 1 0 0 0 1 1 1 1 1 1 2 2 2 2
3 3 4 4 4 4 5 4 4 3 4 3 2 1 3 4 4 4 3 3 3 3 3 3 1 0 0 0 1 1 1 0 0 0 1 1 1 2
4 3 3 3 3 3 3 4 3 3 3 2 1 0 1 1 1 2 3 3 3 3 3 3 2 0 0 0 0 1 1 0 0 0 0 0 0 1
5 4 3 3 3 3 2 3 3 3 3 2 1 0 0 0 0 1 3 3 3 3 3 3 1 0 0 0 0 0 0 0 0 0 0 0 0 0
Wind_Speed
5 5 4 3 3 3 4 4 4 4 3 2 2 1 2 1 1 2 3 4 4 4 3 3 3 3 3 3 3 3 4 3 3 4 4 4 5 5
4 4 4 4 3 3 3 3 4 5 4 2 1 1 1 2 2 3 3 5 5 5 4 4 3 3 3 4 4 4 4 4 3 4 4 4 3 3
5 5 5 4 4 3 3 3 3 4 4 3 2 1 2 3 2 3 3 4 4 7 6 5 4 4 4 4 3 4 4 4 4 3 3 3 3 3
5 5 5 4 4 4 3 4 3 4 4 4 3 2 3 3 3 3 3 3 3 6 7 6 5 4 4 4 3 4 4 3 3 3 3 3 3 3
5 6 6 5 5 4 4 4 4 4 4 4 4 2 3 2 3 3 3 2 4 4 8 8 6 6 5 4 4 4 4 4 4 4 4 3 3 3
6 6 6 5 5 5 5 5 4 4 4 4 4 3 2 2 3 3 3 3 3 3 3 4 7 8 7 6 6 5 5 5 4 4 4 4 4 4
5 6 6 4 4 4 4 4 4 4 4 4 4 3 3 2 3 3 3 2 3 3 3 4 4 5 6 8 8 6 6 5 5 5 4 4 4 4
5 6 6 6 5 5 4 4 5 6 5 5 4 4 4 4 3 4 3 3 3 2 3 4 3 3 3 3 5 7 6 6 5 5 5 5 5 5
5 5 5 3 4 4 5 7 7 6 7 6 5 5 5 4 5 5 4 4 4 2 3 4 4 4 3 3 6 7 7 6 6 5 5 5 5 6
5 5 5 4 3 3 4 5 5 5 5 5 5 5 4 4 4 5 5 5 4 3 3 4 4 4 3 3 7 8 8 7 7 6 6 6 6 7
4 3 4 4 1 3 4 4 4 4 3 4 5 5 4 5 5 4 4 4 4 3 3 3 3 3 3 4 6 10 9 9 8 7 7 6 6 7
3 2 1 1 1 2 4 4 4 4 3 2 3 4 5 5 6 5 5 4 4 3 2 3 3 3 3 3 3 5 6 8 9 8 7 7 6 6
2 1 0 1 1 3 4 3 3 4 3 3 2 2 3 3 3 4 4 4 4 3 2 3 3 3 3 2 3 3 3 3 5 6 8 8 7 6
2 1 1 1 1 3 2 2 4 5 3 2 2 2 2 2 2 2 2 3 3 4 3 3 3 3 3 3 2 2 3 3 3 3 3 7 8 9
1 1 1 3 4 4 3 4 4 3 2 2 2 2 2 2 2 1 1 2 3 3 2 3 3 3 3 3 3 2 2 2 3 2 3 3 4 4
1 2 4 5 4 2 3 3 2 1 1 1 2 2 2 1 1 1 1 1 2 1 1 2 3 3 3 3 3 3 2 2 2 2 3 3 4 4
2 2 1 1 1 1 1 1 1 1 1 1 2 1 1 1 1 1 2 2 2 2 1 1 1 2 2 3 3 3 3 3 2 2 3 4 3 4
3 2 1 1 1 1 1 1 1 1 1 1 1 1 1 1 1 1 2 2 2 1 1 1 1 2 2 2 2 3 3 3 2 2 4 4 4 3
3 2 1 1 1 1 1 1 1 0 1 1 1 1 1 1 1 2 2 2 2 2 2 2 2 2 3 3 2 2 3 3 3 3 3 4 4 3
2 1 1 1 0 0 0 1 1 0 0 1 1 1 1 1 1 2 2 2 2 3 3 3 3 3 3 4 3 2 4 4 3 3 4 4 3 2
1 0 0 0 0 0 1 0 1 1 0 1 1 1 1 1 2 2 2 2 3 3 3 3 2 3 4 4 4 3 2 3 2 3 4 4 4 4
1 1 1 1 1 1 1 1 1 1 1 1 1 1 1 2 2 3 3 3 3 3 4 3 2 3 3 4 4 4 3 2 3 4 4 5 4 4
1 1 1 1 1 1 1 1 1 1 1 1 1 2 2 2 2 2 3 3 3 3 4 3 3 3 3 4 4 4 4 4 4 4 4 5 7 6
Wind_Direction
250 244 248 248 248 253 253 252 259 264 263 237 241 219 238 224 142 225 218 160 178 193 199 203 206 205 203 199 198 201 201 202 207 210 216 223 223 222
250 255 257 253 250 246 248 248 249 259 270 269 260 262 288 261 180 229 223 171 179 191 197 200 202 203 205 202 197 192 190 191 199 208 212 211 215 221
250 243 242 253 259 256 249 247 241 242 251 264 252 224 229 255 243 242 230 223 188 178 190 194 194 193 189 189 185 182 185 190 199 205 201 200 205 212
252 252 250 242 244 254 255 251 243 238 242 254 256 237 229 228 233 245 242 235 236 162 174 183 189 191 189 189 187 191 194 196 199 197 194 199 208 214
255 250 250 244 243 246 249 248 244 239 243 251 259 256 247 230 221 230 232 237 244 178 175 182 187 189 188 188 189 192 197 200 206 209 208 210 215 217
251 250 246 241 237 239 236 237 241 242 236 242 249 251 245 234 222 228 230 225 234 227 200 192 182 188 193 196 196 194 198 201 202 205 207 209 212 213
249 250 247 240 237 236 247 239 238 242 243 244 248 248 241 238 230 233 237 237 225 225 223 215 195 202 196 197 200 197 197 198 200 202 202 203 206 209
251 250 246 224 213 215 225 237 242 241 245 248 249 254 250 242 241 242 234 230 238 221 235 234 220 223 216 202 173 180 193 198 199 202 202 201 204 207
255 251 255 248 223 228 219 221 230 236 238 245 245 252 258 252 245 242 236 243 247 231 230 240 226 231 225 172 161 181 192 199 203 207 209 209 208 211
253 245 244 248 248 254 242 237 240 237 238 240 250 258 262 271 256 244 238 236 242 228 224 244 234 232 226 200 170 186 196 203 206 208 211 214 216 215
256 249 241 235 242 266 244 243 248 246 221 218 236 248 260 260 257 249 242 238 245 241 233 249 245 236 231 218 183 183 193 198 203 207 210 214 219 217
240 227 188 244 254 250 246 245 250 258 263 243 223 226 235 229 221 232 244 244 252 253 225 242 246 244 240 221 207 192 196 195 199 202 205 208 216 228
281 271 146 122 225 251 260 255 258 261 248 245 246 243 243 241 236 234 242 247 255 262 242 239 258 252 250 239 226 216 211 205 200 199 200 200 204 230
288 310 66 141 212 230 239 248 250 250 243 248 250 253 255 255 256 257 251 252 261 262 259 248 253 256 258 247 247 235 227 219 221 220 205 187 204 216
305 6 293 226 222 203 192 223 234 238 244 253 269 280 281 275 265 255 227 221 240 249 237 238 251 253 254 256 261 253 244 236 227 226 215 213 218 215
279 199 205 217 230 221 190 206 231 242 258 260 277 294 302 298 276 287 275 253 259 266 216 236 245 249 248 255 258 258 257 244 228 236 242 232 226 228
287 245 203 177 203 202 211 217 226 208 232 258 265 274 286 290 298 301 290 282 275 280 290 255 230 228 249 269 260 256 259 260 254 244 251 248 233 228
251 218 198 224 250 241 239 224 209 218 257 260 261 273 278 277 283 288 289 294 296 299 286 281 270 244 230 216 275 269 262 262 257 236 250 251 247 240
227 213 209 229 254 268 272 287 286 264 274 272 270 285 296 290 286 290 293 289 286 282 279 274 269 265 265 264 210 229 271 272 264 250 248 256 260 259
236 228 230 248 266 279 288 301 304 342 268 276 277 276 286 284 290 294 290 295 291 289 285 278 278 289 289 293 292 262 239 253 257 261 263 264 269 254
324 293 297 305 348 329 307 297 298 294 291 278 271 266 267 273 283 286 283 278 277 275 279 283 304 284 271 273 268 260 242 213 257 273 272 267 262 259
340 354 3 353 342 319 294 266 242 232 231 251 282 283 286 281 283 288 286 279 274 280 285 283 265 255 265 271 274 273 264 232 202 218 248 266 272 275
332 340 0 341 320 301 292 259 249 249 254 285 292 293 297 294 286 281 286 292 296 295 292 288 284 276 270 271 274 274 266 258 250 241 232 214 212 229